QPF
0.00 0.00 0.00 0.00 0.00 0.00 0.00 0.02 0.04 0.03 0.04 0.05 0.06 0.07 0.06 0.05 0.04 0.03 0.02 0.02 0.02 0.03 0.05 0.05 0.07 0.07 0.07 0.08 0.09 0.10 0.11 0.10 0.09 0.10 0.10 0.07 0.04 0.04 0.05 0.06 0.09 0.11 0.09
0.00 0.00 0.00 0.00 0.00 0.01 0.01 0.01 0.03 0.03 0.04 0.05 0.05 0.05 0.05 0.04 0.04 0.03 0.05 0.03 0.03 0.05 0.06 0.08 0.07 0.07 0.08 0.09 0.09 0.12 0.13 0.10 0.08 0.10 0.12 0.12 0.12 0.08 0.04 0.05 0.06 0.08 0.09
0.00 0.00 0.00 0.00 0.00 0.00 0.01 0.01 0.02 0.02 0.04 0.05 0.05 0.06 0.06 0.06 0.07 0.06 0.06 0.05 0.05 0.05 0.05 0.07 0.07 0.07 0.07 0.10 0.10 0.12 0.12 0.11 0.09 0.08 0.11 0.14 0.17 0.14 0.08 0.07 0.06 0.07 0.07
0.00 0.00 0.00 0.00 0.00 0.00 0.01 0.01 0.01 0.02 0.03 0.04 0.05 0.07 0.09 0.08 0.08 0.06 0.05 0.04 0.05 0.05 0.04 0.04 0.06 0.07 0.08 0.09 0.09 0.11 0.11 0.12 0.12 0.09 0.08 0.10 0.13 0.14 0.14 0.11 0.08 0.09 0.08
0.00 0.00 0.00 0.00 0.00 0.00 0.00 0.01 0.01 0.02 0.03 0.03 0.05 0.07 0.09 0.10 0.07 0.06 0.07 0.05 0.04 0.03 0.02 0.04 0.06 0.08 0.09 0.08 0.09 0.09 0.09 0.11 0.10 0.10 0.11 0.12 0.14 0.13 0.13 0.14 0.14 0.13 0.10
0.00 0.00 0.00 0.00 0.00 0.00 0.00 0.00 0.01 0.02 0.02 0.03 0.04 0.05 0.06 0.07 0.07 0.08 0.09 0.09 0.07 0.05 0.03 0.04 0.07 0.08 0.07 0.07 0.08 0.08 0.09 0.09 0.11 0.11 0.11 0.12 0.12 0.13 0.13 0.13 0.13 0.12 0.10
0.00 0.00 0.00 0.00 0.00 0.00 0.00 0.00 0.01 0.02 0.02 0.02 0.03 0.03 0.04 0.05 0.06 0.06 0.07 0.08 0.07 0.05 0.04 0.05 0.06 0.08 0.07 0.05 0.06 0.08 0.08 0.10 0.11 0.09 0.09 0.08 0.09 0.11 0.11 0.11 0.11 0.12 0.12
0.00 0.00 0.00 0.00 0.00 0.00 0.00 0.01 0.01 0.02 0.02 0.02 0.04 0.06 0.05 0.05 0.05 0.06 0.06 0.07 0.05 0.04 0.05 0.05 0.04 0.06 0.06 0.06 0.10 0.10 0.10 0.09 0.09 0.08 0.10 0.08 0.06 0.08 0.09 0.08 0.11 0.12 0.12
0.00 0.00 0.00 0.00 0.00 0.00 0.00 0.01 0.01 0.02 0.02 0.02 0.05 0.12 0.06 0.03 0.03 0.04 0.04 0.04 0.05 0.04 0.04 0.06 0.06 0.05 0.05 0.05 0.07 0.07 0.08 0.08 0.08 0.09 0.10 0.09 0.07 0.07 0.06 0.07 0.10 0.12 0.12
0.00 0.00 0.00 0.00 0.00 0.00 0.00 0.00 0.01 0.03 0.03 0.04 0.07 0.11 0.05 0.02 0.02 0.02 0.03 0.05 0.05 0.05 0.05 0.06 0.06 0.05 0.04 0.04 0.06 0.07 0.05 0.05 0.06 0.07 0.08 0.08 0.07 0.07 0.06 0.07 0.09 0.11 0.13
0.00 0.00 0.00 0.00 0.00 0.00 0.00 0.01 0.01 0.03 0.04 0.04 0.03 0.03 0.03 0.02 0.02 0.02 0.03 0.03 0.05 0.06 0.06 0.05 0.05 0.05 0.05 0.06 0.06 0.04 0.03 0.03 0.05 0.06 0.06 0.05 0.06 0.06 0.07 0.08 0.10 0.12 0.12
0.00 0.00 0.00 0.00 0.00 0.00 0.01 0.01 0.02 0.04 0.04 0.03 0.03 0.03 0.03 0.03 0.03 0.03 0.03 0.02 0.04 0.06 0.06 0.06 0.05 0.05 0.06 0.07 0.06 0.04 0.04 0.05 0.05 0.05 0.07 0.06 0.07 0.07 0.08 0.09 0.10 0.11 0.11
0.00 0.00 0.00 0.00 0.00 0.01 0.02 0.02 0.04 0.05 0.04 0.03 0.04 0.04 0.03 0.03 0.02 0.02 0.03 0.03 0.04 0.06 0.07 0.08 0.07 0.07 0.07 0.06 0.05 0.04 0.04 0.03 0.03 0.05 0.07 0.07 0.08 0.08 0.09 0.10 0.11 0.11 0.11
0.01 0.00 0.00 0.01 0.02 0.02 0.02 0.03 0.04 0.05 0.05 0.04 0.04 0.03 0.02 0.02 0.02 0.03 0.04 0.05 0.06 0.11 0.10 0.09 0.09 0.08 0.06 0.05 0.05 0.05 0.04 0.04 0.04 0.04 0.05 0.04 0.06 0.07 0.07 0.07 0.10 0.10 0.10
0.03 0.02 0.02 0.03 0.02 0.02 0.02 0.03 0.04 0.05 0.07 0.08 0.03 0.02 0.02 0.01 0.02 0.05 0.12 0.10 0.12 0.18 0.12 0.10 0.08 0.07 0.06 0.06 0.06 0.06 0.05 0.05 0.04 0.04 0.05 0.03 0.04 0.05 0.05 0.06 0.07 0.07 0.07
0.02 0.01 0.02 0.02 0.02 0.01 0.03 0.07 0.06 0.05 0.04 0.03 0.02 0.01 0.02 0.01 0.01 0.02 0.05 0.08 0.11 0.08 0.06 0.07 0.08 0.07 0.04 0.05 0.05 0.04 0.04 0.05 0.05 0.04 0.05 0.05 0.04 0.03 0.03 0.04 0.04 0.06 0.06
0.02 0.02 0.02 0.02 0.02 0.01 0.02 0.03 0.04 0.04 0.03 0.02 0.01 0.01 0.02 0.02 0.01 0.01 0.02 0.03 0.03 0.04 0.05 0.06 0.06 0.04 0.03 0.04 0.04 0.04 0.03 0.04 0.04 0.05 0.06 0.05 0.03 0.02 0.02 0.04 0.03 0.03 0.03
0.05 0.06 0.05 0.02 0.02 0.02 0.01 0.02 0.02 0.01 0.01 0.01 0.02 0.01 0.02 0.02 0.01 0.02 0.02 0.03 0.03 0.04 0.04 0.04 0.04 0.04 0.03 0.04 0.04 0.04 0.02 0.03 0.03 0.05 0.07 0.07 0.05 0.03 0.03 0.03 0.04 0.04 0.03
0.06 0.08 0.05 0.02 0.01 0.01 0.01 0.01 0.02 0.01 0.02 0.02 0.02 0.02 0.01 0.01 0.01 0.01 0.02 0.04 0.04 0.04 0.05 0.05 0.05 0.05 0.04 0.05 0.04 0.03 0.02 0.02 0.02 0.02 0.04 0.06 0.06 0.05 0.03 0.04 0.04 0.04 0.03
0.06 0.08 0.03 0.01 0.00 0.00 0.01 0.02 0.03 0.03 0.04 0.03 0.03 0.02 0.02 0.01 0.01 0.02 0.03 0.04 0.04 0.04 0.05 0.05 0.04 0.03 0.03 0.05 0.04 0.03 0.02 0.02 0.03 0.04 0.04 0.04 0.04 0.03 0.02 0.03 0.04 0.05 0.06
0.07 0.07 0.03 0.01 0.01 0.01 0.02 0.04 0.05 0.05 0.05 0.04 0.03 0.02 0.02 0.02 0.01 0.01 0.02 0.03 0.03 0.04 0.03 0.04 0.04 0.03 0.03 0.04 0.03 0.02 0.02 0.03 0.05 0.05 0.05 0.04 0.03 0.01 0.01 0.02 0.03 0.05 0.06
0.07 0.05 0.02 0.01 0.01 0.02 0.04 0.04 0.04 0.05 0.07 0.05 0.03 0.03 0.02 0.01 0.02 0.02 0.02 0.02 0.03 0.03 0.03 0.04 0.04 0.04 0.03 0.03 0.03 0.03 0.04 0.04 0.03 0.04 0.05 0.04 0.03 0.02 0.01 0.01 0.03 0.03 0.03
0.07 0.05 0.04 0.04 0.03 0.03 0.03 0.03 0.03 0.03 0.03 0.02 0.02 0.02 0.02 0.02 0.02 0.03 0.03 0.02 0.03 0.03 0.04 0.04 0.04 0.04 0.04 0.03 0.03 0.03 0.04 0.03 0.03 0.03 0.04 0.03 0.03 0.03 0.02 0.02 0.02 0.02 0.01
0.05 0.06 0.07 0.09 0.08 0.04 0.03 0.03 0.02 0.02 0.02 0.02 0.02 0.02 0.02 0.02 0.02 0.03 0.03 0.04 0.04 0.05 0.05 0.05 0.05 0.07 0.05 0.03 0.03 0.03 0.02 0.03 0.03 0.03 0.04 0.04 0.03 0.03 0.02 0.03 0.02 0.02 0.02
0.04 0.05 0.06 0.08 0.12 0.12 0.08 0.04 0.03 0.02 0.02 0.03 0.02 0.02 0.01 0.02 0.03 0.03 0.02 0.02 0.03 0.03 0.04 0.04 0.05 0.05 0.06 0.06 0.05 0.04 0.03 0.02 0.04 0.05 0.06 0.05 0.04 0.03 0.03 0.02 0.03 0.04 0.05
0.03 0.04 0.04 0.03 0.04 0.06 0.06 0.04 0.03 0.03 0.02 0.02 0.02 0.01 0.01 0.01 0.02 0.02 0.02 0.02 0.03 0.04 0.04 0.06 0.06 0.07 0.09 0.09 0.07 0.07 0.07 0.05 0.06 0.05 0.05 0.04 0.03 0.03 0.03 0.03 0.03 0.04 0.04
MSLP
1008.23 1008.83 1009.40 1009.91 1010.35 1010.71 1011.01 1011.26 1011.48 1011.68 1011.88 1012.09 1012.30 1012.50 1012.70 1012.88 1013.05 1013.21 1013.37 1013.52 1013.68 1013.85 1014.05 1014.26 1014.49 1014.73 1014.98 1015.23 1015.47 1015.71 1015.92 1016.11 1016.28 1016.43 1016.54 1016.61 1016.65 1016.65 1016.61 1016.55 1016.48 1016.42 1016.41
1007.51 1008.16 1008.80 1009.38 1009.87 1010.27 1010.60 1010.89 1011.14 1011.40 1011.67 1011.94 1012.22 1012.47 1012.69 1012.87 1013.00 1013.10 1013.18 1013.27 1013.39 1013.55 1013.76 1014.01 1014.29 1014.59 1014.87 1015.14 1015.38 1015.59 1015.77 1015.94 1016.09 1016.23 1016.37 1016.48 1016.57 1016.60 1016.57 1016.49 1016.37 1016.23 1016.11
1006.79 1007.49 1008.19 1008.82 1009.37 1009.81 1010.18 1010.50 1010.80 1011.11 1011.45 1011.80 1012.14 1012.45 1012.70 1012.87 1012.97 1013.02 1013.03 1013.06 1013.13 1013.26 1013.47 1013.75 1014.07 1014.41 1014.73 1015.01 1015.25 1015.43 1015.58 1015.71 1015.84 1015.99 1016.14 1016.30 1016.43 1016.52 1016.54 1016.48 1016.35 1016.17 1015.97
1006.13 1006.86 1007.61 1008.30 1008.89 1009.38 1009.78 1010.13 1010.48 1010.85 1011.25 1011.66 1012.07 1012.44 1012.72 1012.90 1012.97 1012.97 1012.92 1012.88 1012.90 1013.00 1013.19 1013.48 1013.82 1014.18 1014.53 1014.83 1015.06 1015.23 1015.35 1015.45 1015.57 1015.71 1015.89 1016.09 1016.28 1016.44 1016.52 1016.52 1016.42 1016.23 1016.01
1005.59 1006.35 1007.14 1007.88 1008.51 1009.03 1009.45 1009.83 1010.21 1010.61 1011.06 1011.54 1012.01 1012.42 1012.74 1012.93 1012.99 1012.94 1012.84 1012.74 1012.68 1012.73 1012.88 1013.15 1013.50 1013.88 1014.24 1014.55 1014.79 1014.96 1015.08 1015.17 1015.28 1015.43 1015.63 1015.87 1016.12 1016.35 1016.52 1016.58 1016.54 1016.41 1016.20
1005.23 1006.02 1006.85 1007.62 1008.28 1008.82 1009.25 1009.64 1010.02 1010.45 1010.92 1011.43 1011.95 1012.40 1012.75 1012.95 1013.00 1012.93 1012.77 1012.60 1012.47 1012.44 1012.54 1012.76 1013.09 1013.46 1013.84 1014.17 1014.44 1014.63 1014.76 1014.87 1014.99 1015.15 1015.37 1015.65 1015.95 1016.24 1016.48 1016.64 1016.68 1016.62 1016.48
1005.09 1005.90 1006.76 1007.56 1008.24 1008.79 1009.22 1009.59 1009.96 1010.37 1010.85 1011.36 1011.89 1012.37 1012.74 1012.96 1013.01 1012.91 1012.70 1012.45 1012.24 1012.13 1012.14 1012.30 1012.58 1012.94 1013.32 1013.68 1013.98 1014.22 1014.40 1014.54 1014.69 1014.87 1015.11 1015.41 1015.75 1016.09 1016.39 1016.63 1016.77 1016.81 1016.76
1005.17 1006.01 1006.89 1007.72 1008.41 1008.96 1009.38 1009.72 1010.05 1010.42 1010.86 1011.35 1011.87 1012.35 1012.73 1012.95 1013.00 1012.87 1012.62 1012.31 1012.01 1011.80 1011.72 1011.79 1012.01 1012.33 1012.72 1013.11 1013.46 1013.76 1014.00 1014.20 1014.39 1014.60 1014.85 1015.16 1015.50 1015.87 1016.22 1016.52 1016.75 1016.90 1016.98
1005.45 1006.31 1007.23 1008.08 1008.78 1009.33 1009.72 1010.02 1010.30 1010.61 1010.98 1011.43 1011.91 1012.36 1012.73 1012.95 1012.99 1012.85 1012.56 1012.19 1011.82 1011.51 1011.33 1011.31 1011.45 1011.74 1012.11 1012.53 1012.94 1013.30 1013.62 1013.88 1014.12 1014.36 1014.61 1014.91 1015.24 1015.60 1015.96 1016.31 1016.62 1016.88 1017.08
1005.85 1006.75 1007.70 1008.58 1009.31 1009.85 1010.22 1010.49 1010.70 1010.94 1011.24 1011.61 1012.03 1012.44 1012.79 1013.00 1013.03 1012.88 1012.57 1012.16 1011.72 1011.33 1011.05 1010.95 1011.02 1011.25 1011.61 1012.04 1012.50 1012.93 1013.32 1013.65 1013.93 1014.18 1014.43 1014.69 1014.99 1015.31 1015.67 1016.04 1016.40 1016.75 1017.07
1006.28 1007.22 1008.22 1009.14 1009.90 1010.46 1010.83 1011.07 1011.23 1011.40 1011.62 1011.91 1012.26 1012.62 1012.93 1013.12 1013.15 1013.01 1012.70 1012.27 1011.79 1011.35 1011.00 1010.82 1010.82 1011.01 1011.34 1011.78 1012.26 1012.74 1013.19 1013.56 1013.87 1014.13 1014.36 1014.58 1014.82 1015.09 1015.41 1015.77 1016.17 1016.58 1017.00
1006.63 1007.63 1008.67 1009.64 1010.45 1011.05 1011.45 1011.69 1011.84 1011.96 1012.11 1012.33 1012.61 1012.91 1013.18 1013.36 1013.39 1013.27 1012.98 1012.56 1012.09 1011.62 1011.24 1011.01 1010.96 1011.09 1011.39 1011.81 1012.31 1012.81 1013.29 1013.69 1014.01 1014.26 1014.46 1014.63 1014.81 1015.02 1015.29 1015.62 1016.02 1016.47 1016.96
1006.83 1007.86 1008.95 1009.98 1010.86 1011.53 1011.99 1012.28 1012.44 1012.54 1012.66 1012.83 1013.04 1013.29 1013.53 1013.70 1013.75 1013.66 1013.42 1013.06 1012.62 1012.18 1011.79 1011.54 1011.45 1011.54 1011.80 1012.20 1012.67 1013.18 1013.65 1014.06 1014.38 1014.61 1014.77 1014.89 1015.01 1015.16 1015.37 1015.66 1016.04 1016.51 1017.04
1006.83 1007.89 1009.01 1010.10 1011.06 1011.83 1012.38 1012.74 1012.96 1013.09 1013.21 1013.34 1013.52 1013.73 1013.95 1014.12 1014.21 1014.17 1014.01 1013.72 1013.36 1012.97 1012.63 1012.38 1012.28 1012.34 1012.56 1012.91 1013.35 1013.82 1014.27 1014.66 1014.96 1015.17 1015.30 1015.38 1015.44 1015.54 1015.70 1015.95 1016.30 1016.75 1017.28
1006.64 1007.69 1008.84 1009.98 1011.02 1011.89 1012.56 1013.03 1013.33 1013.53 1013.68 1013.82 1013.98 1014.18 1014.39 1014.58 1014.71 1014.74 1014.67 1014.49 1014.23 1013.94 1013.66 1013.44 1013.35 1013.39 1013.56 1013.86 1014.25 1014.67 1015.08 1015.44 1015.71 1015.90 1016.01 1016.06 1016.09 1016.15 1016.27 1016.48 1016.80 1017.21 1017.71
1006.32 1007.33 1008.47 1009.64 1010.75 1011.73 1012.52 1013.12 1013.54 1013.82 1014.03 1014.20 1014.38 1014.58 1014.79 1015.00 1015.18 1015.30 1015.33 1015.27 1015.13 1014.95 1014.76 1014.61 1014.53 1014.56 1014.70 1014.94 1015.27 1015.63 1015.99 1016.30 1016.56 1016.73 1016.83 1016.87 1016.90 1016.94 1017.04 1017.22 1017.49 1017.86 1018.31
1005.97 1006.91 1008.01 1009.18 1010.34 1011.40 1012.30 1013.02 1013.56 1013.95 1014.23 1014.45 1014.66 1014.87 1015.10 1015.34 1015.57 1015.77 1015.91 1015.97 1015.96 1015.90 1015.81 1015.73 1015.69 1015.72 1015.83 1016.03 1016.29 1016.59 1016.89 1017.17 1017.40 1017.57 1017.68 1017.74 1017.78 1017.83 1017.92 1018.08 1018.31 1018.63 1019.01
1005.72 1006.55 1007.58 1008.72 1009.89 1011.00 1011.98 1012.80 1013.44 1013.93 1014.28 1014.56 1014.80 1015.04 1015.29 1015.56 1015.84 1016.11 1016.34 1016.52 1016.63 1016.69 1016.71 1016.71 1016.71 1016.75 1016.85 1017.00 1017.21 1017.45 1017.71 1017.97 1018.19 1018.37 1018.50 1018.60 1018.67 1018.74 1018.84 1018.98 1019.18 1019.43 1019.74
1005.68 1006.39 1007.32 1008.39 1009.52 1010.63 1011.66 1012.54 1013.25 1013.81 1014.23 1014.55 1014.83 1015.09 1015.36 1015.66 1015.98 1016.30 1016.61 1016.89 1017.12 1017.28 1017.40 1017.47 1017.53 1017.59 1017.68 1017.81 1017.98 1018.18 1018.41 1018.64 1018.87 1019.07 1019.23 1019.37 1019.49 1019.59 1019.70 1019.84 1020.00 1020.20 1020.44
1005.92 1006.50 1007.30 1008.27 1009.33 1010.40 1011.41 1012.31 1013.06 1013.65 1014.11 1014.47 1014.77 1015.04 1015.33 1015.64 1016.00 1016.37 1016.74 1017.10 1017.42 1017.68 1017.88 1018.03 1018.14 1018.23 1018.33 1018.45 1018.59 1018.77 1018.98 1019.21 1019.44 1019.67 1019.87 1020.05 1020.21 1020.35 1020.48 1020.61 1020.75 1020.90 1021.06
1006.42 1006.88 1007.55 1008.40 1009.36 1010.34 1011.30 1012.17 1012.91 1013.51 1013.98 1014.35 1014.66 1014.94 1015.24 1015.57 1015.94 1016.34 1016.77 1017.19 1017.57 1017.91 1018.19 1018.41 1018.58 1018.71 1018.83 1018.95 1019.10 1019.27 1019.47 1019.70 1019.94 1020.19 1020.43 1020.65 1020.84 1021.01 1021.15 1021.27 1021.39 1021.49 1021.61
1007.12 1007.49 1008.04 1008.77 1009.60 1010.48 1011.34 1012.14 1012.84 1013.41 1013.87 1014.23 1014.54 1014.83 1015.13 1015.47 1015.85 1016.28 1016.74 1017.20 1017.65 1018.05 1018.40 1018.69 1018.91 1019.09 1019.24 1019.39 1019.54 1019.71 1019.92 1020.15 1020.40 1020.66 1020.92 1021.16 1021.38 1021.56 1021.71 1021.83 1021.92 1022.00 1022.07
1007.93 1008.22 1008.68 1009.28 1009.99 1010.75 1011.51 1012.22 1012.84 1013.37 1013.79 1014.14 1014.44 1014.73 1015.02 1015.37 1015.76 1016.20 1016.69 1017.19 1017.68 1018.14 1018.56 1018.91 1019.19 1019.43 1019.62 1019.80 1019.97 1020.15 1020.36 1020.59 1020.84 1021.10 1021.36 1021.60 1021.82 1022.01 1022.16 1022.27 1022.35 1022.41 1022.46
1008.71 1008.96 1009.35 1009.86 1010.45 1011.09 1011.74 1012.35 1012.90 1013.36 1013.75 1014.08 1014.36 1014.64 1014.94 1015.28 1015.69 1016.14 1016.65 1017.18 1017.71 1018.22 1018.69 1019.10 1019.45 1019.74 1019.99 1020.20 1020.39 1020.59 1020.79 1021.01 1021.25 1021.49 1021.73 1021.96 1022.17 1022.36 1022.50 1022.61 1022.68 1022.74 1022.78
1009.35 1009.59 1009.94 1010.37 1010.88 1011.42 1011.97 1012.49 1012.97 1013.38 1013.73 1014.03 1014.30 1014.58 1014.87 1015.22 1015.63 1016.09 1016.61 1017.17 1017.73 1018.29 1018.81 1019.28 1019.69 1020.04 1020.33 1020.58 1020.80 1021.00 1021.19 1021.39 1021.60 1021.81 1022.02 1022.22 1022.41 1022.57 1022.71 1022.82 1022.90 1022.97 1023.02
1009.77 1010.03 1010.36 1010.76 1011.20 1011.67 1012.14 1012.60 1013.01 1013.38 1013.70 1013.98 1014.25 1014.52 1014.82 1015.16 1015.57 1016.04 1016.57 1017.14 1017.73 1018.32 1018.88 1019.40 1019.87 1020.27 1020.61 1020.89 1021.13 1021.33 1021.51 1021.68 1021.84 1022.01 1022.17 1022.34 1022.50 1022.64 1022.78 1022.90 1023.00 1023.09 1023.17
Thickness
5839 5837 5833 5829 5822 5816 5809 5805 5800 5797 5792 5787 5783 5779 5778 5778 5777 5775 5772 5770 5768 5767 5765 5763 5762 5761 5760 5759 5758 5756 5755 5755 5757 5754 5751 5755 5758 5758 5757 5756 5755 5754 5753
5838 5835 5832 5828 5822 5816 5811 5806 5801 5798 5794 5790 5787 5784 5782 5780 5779 5777 5774 5772 5769 5768 5767 5764 5763 5762 5760 5758 5757 5756 5753 5754 5757 5752 5746 5743 5746 5752 5757 5756 5755 5754 5753
5839 5835 5832 5828 5824 5817 5813 5809 5803 5799 5795 5793 5789 5787 5783 5781 5778 5776 5774 5773 5771 5769 5768 5765 5764 5762 5761 5758 5757 5756 5754 5751 5755 5756 5749 5741 5737 5743 5751 5755 5755 5754 5752
5846 5839 5834 5829 5826 5822 5818 5812 5806 5801 5797 5794 5789 5784 5779 5776 5776 5776 5775 5774 5773 5771 5769 5767 5765 5763 5762 5760 5759 5759 5757 5754 5752 5754 5755 5753 5750 5741 5740 5747 5752 5753 5751
5850 5843 5838 5833 5830 5827 5821 5814 5807 5802 5798 5795 5791 5786 5782 5780 5780 5779 5776 5774 5774 5772 5771 5769 5766 5764 5762 5761 5760 5759 5758 5756 5753 5752 5753 5752 5751 5750 5741 5737 5743 5746 5749
5853 5848 5843 5838 5832 5829 5823 5816 5808 5802 5799 5795 5792 5788 5784 5782 5779 5777 5775 5774 5773 5773 5772 5771 5768 5766 5764 5763 5761 5760 5759 5757 5755 5754 5753 5751 5748 5746 5744 5739 5739 5740 5745
5852 5846 5842 5837 5832 5828 5823 5817 5808 5802 5799 5796 5793 5790 5787 5784 5779 5777 5776 5774 5774 5773 5773 5773 5769 5767 5765 5764 5762 5760 5759 5758 5756 5754 5754 5754 5753 5752 5748 5743 5740 5739 5742
5851 5847 5843 5839 5834 5829 5823 5817 5809 5802 5799 5796 5793 5792 5789 5785 5782 5780 5778 5776 5776 5776 5775 5773 5770 5768 5766 5765 5763 5761 5760 5759 5757 5756 5755 5754 5754 5754 5751 5746 5741 5735 5736
5848 5844 5843 5840 5835 5829 5824 5819 5810 5804 5800 5797 5794 5791 5789 5786 5784 5782 5780 5778 5777 5777 5776 5773 5770 5769 5767 5765 5763 5761 5759 5758 5757 5756 5755 5754 5754 5754 5753 5751 5746 5738 5730
5846 5844 5841 5837 5833 5829 5825 5820 5813 5806 5801 5798 5795 5792 5789 5787 5785 5783 5780 5778 5777 5776 5775 5773 5771 5768 5767 5765 5762 5761 5760 5758 5756 5755 5754 5753 5753 5752 5752 5750 5748 5745 5738
5843 5841 5838 5836 5833 5829 5824 5818 5813 5806 5801 5798 5795 5793 5790 5787 5785 5782 5780 5778 5776 5775 5773 5771 5770 5768 5765 5764 5762 5760 5758 5756 5754 5754 5752 5751 5751 5750 5749 5749 5747 5744 5741
5841 5838 5835 5832 5829 5824 5821 5816 5812 5807 5802 5799 5795 5791 5789 5786 5783 5780 5778 5777 5775 5773 5771 5770 5768 5766 5764 5763 5760 5758 5757 5754 5752 5750 5749 5748 5749 5747 5747 5746 5744 5742 5740
5833 5832 5829 5826 5823 5820 5817 5813 5809 5805 5802 5798 5793 5789 5786 5783 5780 5778 5776 5774 5773 5771 5769 5767 5765 5763 5762 5761 5759 5757 5755 5752 5750 5749 5747 5745 5745 5743 5743 5742 5741 5739 5738
5824 5823 5820 5818 5817 5815 5812 5810 5806 5804 5800 5796 5791 5787 5784 5782 5779 5777 5775 5772 5771 5768 5766 5765 5763 5761 5760 5758 5757 5755 5752 5750 5748 5746 5744 5742 5741 5739 5739 5737 5736 5734 5732
5818 5816 5814 5812 5810 5808 5806 5804 5802 5800 5797 5792 5787 5784 5782 5780 5777 5774 5772 5770 5768 5766 5763 5761 5760 5758 5756 5755 5753 5751 5749 5746 5744 5742 5740 5738 5736 5735 5734 5733 5730 5729 5725
5812 5812 5810 5806 5804 5802 5801 5799 5796 5795 5792 5787 5783 5781 5779 5776 5774 5771 5769 5766 5763 5761 5759 5757 5755 5753 5751 5750 5749 5748 5745 5743 5740 5737 5736 5734 5732 5730 5728 5727 5725 5723 5719
5807 5804 5803 5801 5799 5798 5796 5793 5792 5790 5786 5782 5779 5777 5775 5772 5769 5768 5764 5761 5758 5756 5753 5752 5749 5747 5745 5744 5743 5742 5740 5738 5735 5732 5730 5730 5728 5725 5723 5720 5718 5716 5713
5800 5798 5796 5794 5794 5793 5792 5789 5787 5784 5780 5777 5774 5771 5769 5766 5764 5761 5758 5756 5753 5751 5749 5746 5744 5742 5739 5738 5737 5735 5734 5731 5729 5727 5724 5722 5719 5718 5716 5714 5710 5707 5705
5797 5793 5790 5789 5788 5787 5786 5783 5780 5777 5773 5769 5767 5765 5763 5759 5756 5754 5752 5750 5748 5745 5743 5741 5739 5736 5733 5731 5730 5729 5728 5725 5722 5721 5718 5716 5713 5710 5709 5706 5703 5699 5697
5791 5787 5785 5784 5780 5779 5779 5775 5771 5768 5765 5763 5761 5760 5757 5754 5750 5748 5746 5744 5742 5739 5738 5735 5733 5731 5728 5725 5724 5722 5722 5719 5716 5714 5711 5707 5705 5702 5701 5699 5695 5691 5689
5781 5779 5776 5774 5772 5772 5770 5765 5762 5759 5758 5757 5754 5752 5750 5748 5745 5743 5741 5738 5735 5733 5730 5728 5726 5725 5723 5720 5717 5716 5715 5713 5710 5707 5703 5699 5697 5695 5693 5691 5688 5685 5683
5769 5769 5766 5763 5763 5762 5759 5754 5752 5752 5752 5749 5746 5743 5742 5742 5739 5736 5734 5732 5729 5726 5723 5721 5719 5718 5716 5713 5710 5709 5707 5706 5703 5699 5696 5692 5689 5687 5686 5684 5681 5679 5677
5758 5759 5757 5754 5753 5752 5750 5746 5745 5745 5743 5740 5737 5735 5734 5733 5731 5729 5726 5724 5722 5720 5717 5715 5712 5710 5709 5706 5703 5701 5699 5696 5694 5692 5688 5684 5682 5679 5677 5675 5673 5671 5670
5750 5750 5747 5744 5741 5742 5741 5740 5739 5738 5735 5732 5729 5727 5726 5724 5722 5720 5719 5717 5714 5712 5710 5708 5705 5703 5701 5698 5695 5692 5690 5687 5685 5682 5679 5676 5674 5672 5670 5668 5666 5664 5662
5741 5739 5737 5734 5733 5733 5730 5732 5731 5730 5727 5724 5722 5720 5719 5716 5712 5709 5706 5707 5702 5701 5701 5700 5699 5696 5692 5688 5686 5685 5683 5681 5678 5675 5672 5671 5669 5666 5664 5661 5659 5657 5654
5733 5731 5729 5727 5725 5723 5722 5724 5724 5722 5719 5716 5715 5715 5713 5710 5706 5702 5697 5693 5692 5691 5690 5690 5689 5686 5684 5680 5678 5677 5676 5673 5670 5668 5666 5664 5662 5659 5657 5654 5651 5648 5645